Location: Innsbruck
(47.2657°N, 11.3914°E)
Time: 21:10:48
(UTC+02:00)

N. Korean satellite - Pass Details

Date: 24 September 2021
Orbit: 450 x 495 km, 97.3° (Epoch: 16 October)

Event Time Altitude Azimuth Distance (km) Brightness Sun altitude
Rises 05:58:22 0° 22° (NNE) 2,521 10.7 -11.9°
Reaches altitude 10° 06:00:37 10° 35° (NE) 1,647 10.0 -11.5°
Maximum altitude 06:03:43 28° 96° (E) 919 8.8 -11.0°
Drops below altitude 10° 06:06:51 10° 157° (SSE) 1,657 9.4 -10.5°
Sets 06:09:07 0° 169° (S) 2,540 10.2 -10.1°
